This is the latest recevied weather packets stored in our database for station/object W8RD. If no packets are shown the sender has not sent any weather packets the latest 10 day(s).
| Time | Temp. | Humidity | Pressure | Rain* | Wind** | Luminosity | Snow |
|---|---|---|---|---|---|---|---|
| 1777441172 | 22.22° C | 80% | 1017.7 hPa | 0 mm | - | 0 W/m² | - |
| 1777440570 | 22.78° C | 78% | 1017.7 hPa | 0 mm | - | 0 W/m² | - |
| 1777439968 | 22.78° C | 78% | 1018.2 hPa | 0 mm | - | 0 W/m² | - |
| 1777439366 | 23.33° C | 77% | 1018.1 hPa | 0 mm | - | 0 W/m² | - |
| 1777438764 | 23.33° C | 76% | 1018.6 hPa | 0 mm | - | 0 W/m² | - |
| 1777438162 | 23.89° C | 75% | 1018.6 hPa | 0 mm | - | 0 W/m² | - |
| 1777437560 | 23.89° C | 75% | 1018.3 hPa | 0 mm | - | 0 W/m² | - |
| 1777436959 | 23.89° C | 74% | 1018.2 hPa | 0 mm | - | 0 W/m² | - |
| 1777436358 | 23.89° C | 75% | 1018.5 hPa | 0 mm | - | 0 W/m² | - |
| 1777435757 | 23.33° C | 76% | 1018.6 hPa | 0 mm | - | 0 W/m² | - |
| 1777435154 | 22.78° C | 78% | 1018.7 hPa | 0 mm | - | 0 W/m² | - |
| 1777434554 | 22.78° C | 80% | 1018.7 hPa | 0 mm | - | 0 W/m² | - |
| 1777433955 | 22.78° C | 80% | 1018.9 hPa | 0 mm | - | 0 W/m² | - |
| 1777433353 | 22.78° C | 80% | 1019.1 hPa | 0 mm | - | 0 W/m² | - |
| 1777432750 | 23.33° C | 79% | 1019.3 hPa | 0 mm | - | 0 W/m² | - |
| 1777432148 | 23.33° C | 79% | 1019.5 hPa | 0 mm | - | 0 W/m² | - |
| 1777431545 | 23.33° C | 77% | 1019.4 hPa | 0 mm | - | 0 W/m² | - |
| 1777430942 | 23.33° C | 76% | 1019.4 hPa | 0 mm | - | 0 W/m² | - |
| 1777430340 | 23.33° C | 75% | 1019.2 hPa | 0 mm | - | 0 W/m² | - |
| 1777429737 | 23.33° C | 75% | 1019.1 hPa | 0 mm | - | 0 W/m² | - |
| 1777429135 | 23.33° C | 75% | 1018.8 hPa | 0 mm | - | 0 W/m² | - |
| 1777428533 | 23.33° C | 75% | 1018.9 hPa | 0 mm | - | 0 W/m² | - |
| 1777427930 | 23.89° C | 74% | 1018.8 hPa | 0 mm | - | 0 W/m² | - |
| 1777427329 | 23.89° C | 73% | 1018.7 hPa | 0 mm | - | 0 W/m² | - |
| 1777426729 | 24.44° C | 72% | 1018.8 hPa | 0 mm | - | 0 W/m² | - |
* Rain latest hour (hover to see other rain measurements)
** Current wind speed in m/s (hover to see current wind gust speed)